Talkeetna, AK

6:37 PM AKST on January 23, 2017 (GMT -0900)
Talkeetna

Weather History for PATK - November, 2012

Change the Weather History Date:

Saturday, November 3, 2012

  Actual Average Record
Temperature  
Mean Temperature 26 °F -  
Max Temperature 34 °F 31 °F 48 °F (2002)
Min Temperature 18 °F 15 °F -18 °F (1950)
Degree Days  
Heating Degree Days 38    
Moisture  
Dew Point 12 °F    
Average Humidity 52    
Maximum Humidity 71    
Minimum Humidity 24    
Precipitation  
Precipitation 0.00 in - - ()
Sea Level Pressure  
Sea Level Pressure 29.39 in    
Wind  
Wind Speed 7 mph (NNE)    
Max Wind Speed 12 mph    
Max Gust Speed 20 mph    
Visibility 10 miles    
Events      
Averages and records for this station are not official NWS values.
T = Trace of Precipitation, MM = Missing Value Source: NWS Daily Summary

Daily Weather History Graph

Daily Weather History Graph

Search for Another Location

Airport or City:

Trip Planner

Search our weather history database for the weather conditions in past years. The results will help you decide how hot, cold, wet, or windy it might be!

Date:

Astronomy

Nov. 03, 2012 Rise Set
Actual Time 9:41 AM AKDT 5:45 PM AKDT
Civil Twilight 8:51 AM AKDT 6:35 PM AKDT
Nautical Twilight 7:57 AM AKDT 7:29 PM AKDT
Astronomical Twilight 7:05 AM AKDT 8:21 PM AKDT
Moon 9:02 PM AKDT (11/3) 2:28 PM AKDT (11/3)
Length of Visible Light 9h 44m
Length of Day
8h 03m
Waning Gibbous, 79% of the Moon is Illuminated
Nov 3
Waning Gibbous
Nov 6
Last Quarter
Nov 13
New
Nov 20
First Quarter
Nov 28
Full

Hourly Weather History & Observations

Time (AKDT) Temp. Windchill Dew Point Humidity Pressure Visibility Wind Dir Wind Speed Gust Speed Precip Events Conditions
12:53 AM 28.9 °F 20.4 °F 15.1 °F 56% 29.41 in 10.0 mi NNE 9.2 mph 18.4 mph N/A   Clear
1:53 AM 28.9 °F 21.1 °F 16.0 °F 58% 29.41 in 10.0 mi North 8.1 mph 16.1 mph N/A   Partly Cloudy
2:53 AM 28.0 °F 24.2 °F 16.0 °F 61% 29.41 in 10.0 mi North 3.5 mph - N/A   Partly Cloudy
3:53 AM 27.0 °F 21.6 °F 14.0 °F 58% 29.40 in 10.0 mi North 4.6 mph - N/A   Clear
4:53 AM 26.1 °F 19.4 °F 12.9 °F 58% 29.39 in 10.0 mi North 5.8 mph - N/A   Clear
5:53 AM 27.0 °F 18.0 °F 12.9 °F 56% 29.39 in 10.0 mi NNE 9.2 mph 19.6 mph N/A   Clear
6:53 AM 27.0 °F 18.7 °F 12.9 °F 56% 29.38 in 10.0 mi North 8.1 mph 16.1 mph N/A   Clear
7:53 AM 26.1 °F 15.6 °F 12.0 °F 55% 29.38 in 10.0 mi NNE 11.5 mph 19.6 mph N/A   Clear
8:53 AM 25.0 °F 17.1 °F 12.0 °F 58% 29.38 in 10.0 mi North 6.9 mph - N/A   Clear
9:53 AM 25.0 °F 18.1 °F 10.9 °F 55% 29.38 in 10.0 mi North 5.8 mph - N/A   Clear
10:53 AM 26.1 °F 19.4 °F 10.9 °F 53% 29.39 in 10.0 mi North 5.8 mph - N/A   Clear
11:53 AM 28.0 °F 18.6 °F 10.0 °F 47% 29.39 in 10.0 mi NNE 10.4 mph - N/A   Clear
12:53 PM 30.0 °F 23.2 °F 10.0 °F 43% 29.39 in 10.0 mi NNE 6.9 mph - N/A   Clear
1:53 PM 30.9 °F 24.3 °F 10.9 °F 43% 29.38 in 10.0 mi North 6.9 mph - N/A   Clear
2:53 PM 33.1 °F 27.7 °F 10.9 °F 40% 29.37 in 10.0 mi NNE 5.8 mph - N/A   Clear
3:53 PM 34.0 °F 29.8 °F 10.9 °F 38% 29.36 in 10.0 mi NNE 4.6 mph - N/A   Clear
4:53 PM 33.1 °F 26.9 °F 12.0 °F 42% 29.36 in 10.0 mi NNE 6.9 mph - N/A   Clear
5:53 PM 32.0 °F 24.8 °F 12.9 °F 45% 29.37 in 10.0 mi NE 8.1 mph - N/A   Clear
6:53 PM 28.9 °F 23.9 °F 12.9 °F 51% 29.37 in 10.0 mi NNW 4.6 mph - N/A   Clear
8:53 PM 25.0 °F - 12.0 °F 58% 29.39 in 10.0 mi Calm Calm - N/A   Clear
9:53 PM 23.0 °F - 12.0 °F 63% 29.39 in 10.0 mi Calm Calm - N/A   Clear
10:53 PM 19.9 °F 14.9 °F 10.9 °F 68% 29.40 in 10.0 mi East 3.5 mph - N/A   Clear
11:53 PM 18.0 °F 12.7 °F 10.0 °F 71% 29.40 in 10.0 mi NNE 3.5 mph - N/A   Clear